Regional Weather Roundup
Issued by NWS

Home | Current Version | Previous Version | Graphics & Text | Print | Product List | Glossary On
Versions: 1 2 3 4 5 6 7 8 9 10 11 12 13 14 15 16 17 18 19 20 21 22 23 24 25 26 27
000
ASUS45 KSLC 200910
RWRUT

UTAH REGIONAL WEATHER ROUNDUP
NATIONAL WEATHER SERVICE SALT LAKE CITY UT
300 AM MDT SUN AUG 20 2017

UTZ001>011-023>025-201000-

NORTHERN UTAH

CITY           SKY/WX    TMP DP  RH WIND       PRES   REMARKS
BRIGHAM CITY   PTCLDY    64  40  40 NW6       30.00S
HILL AFB       CLEAR     71  36  27 E14       30.03S
LOGAN          PTCLDY    58  45  62 N3        30.02S
OGDEN          CLEAR     70  38  31 S14       29.99S
SALT LAKE CITY PTCLDY    75  43  31 SE7       29.98F
TOOELE VALLEY  PTCLDY    68  36  30 S6        30.00S
WENDOVER       PTCLDY    76  36  23 E6        29.98F
HEBER CITY     PTCLDY    55  41  58 CALM      30.12S
WEST JORDAN    CLEAR     72  52  49 S7        30.03F

$$

UTZ011>015-024>027-201000-

CENTRAL/NORTHEAST UTAH

CITY           SKY/WX    TMP DP  RH WIND       PRES   REMARKS
PROVO AIRPORT  PTCLDY    67  46  47 S8        30.04F
MOAB/CANYONLAN MOCLDY    78  36  21 S3        30.00S
DELTA          CLEAR     64  34  32 CALM      30.05F
PRICE          PTCLDY    66  37  34 CALM      30.13F
ROOSEVELT      CLEAR     59  45  58 W8        30.11S
VERNAL         CLEAR     57  44  62 SW3       30.09S

$$

UTZ013>016-019>022-027-201000-

SOUTHERN UTAH

CITY           SKY/WX    TMP DP  RH WIND       PRES   REMARKS
BRYCE CANYON   PTCLDY    48  37  65 W8        30.30F
CEDAR CITY     CLEAR     63  38  39 E3        30.14S
MILFORD        CLEAR     66  32  28 SW9       30.09S
ST GEORGE      MOSUNNY   77  41  27 E6        29.95R
HANKSVILLE     PTCLDY    68  32  26 CALM      30.04S
BLANDING       MOCLDY    69  36  30 NW6       30.18F

$$

REGIONAL REPORTS     COLORADO/ARIZONA

CITY           SKY/WX    TMP DP  RH WIND       PRES   REMARKS
CRAIG, CO      CLEAR     52  38  58 CALM      30.18S
GRAND JUNCTION CLOUDY    69  38  32 E6        30.06F
RIFLE, CO      CLEAR     57  38  48 E3        30.15S
MONTROSE, CO   CLOUDY    59  39  47 SE7       30.16S
CORTEZ, CO     PTCLDY    60  40  47 CALM      30.14S
COLORADO CITY    N/A     57  45  62 SE5       30.13S
PAGE, AZ       PTCLDY    82  36  19 CALM      30.01S
GRAND CANYON   PTCLDY    50  39  66 CALM      30.24F
KINGMAN, AZ    CLEAR     75  46  35 SE10      30.00S
FLAGSTAFF, AZ  PTCLDY    58  45  62 SW3       30.27F

$$

REGIONAL REPORTS    NEVADA/IDAHO/WYOMING

CITY           SKY/WX    TMP DP  RH WIND       PRES   REMARKS
LAS VEGAS, NV  CLEAR     86  43  22 S3        29.86S
ELY, NY        CLEAR     54  33  45 S13       30.16F
ELKO, NV       CLEAR     63  30  28 E3        30.07R
POCATELLO, ID  CLOUDY    69  32  25 SW14      30.05S
BURLEY, ID     PTCLDY    59  37  44 S6        30.03S
FORT BRIDGER,    N/A     58  32  37 W9        30.24S
EVANSTON, WY   CLOUDY    60  37  42 SE8       30.22S
ROCK SPRINGS,  CLOUDY    58  33  39 NW5       30.18F

$$




USA.gov is the U.S. government's official web portal to all federal, state and local government web resources and services.